Weather History for Grayling, MI

Change the Weather History Date:

Friday, January 17, 2014

  Actual Average (KHTL) Record (KHTL)
Temperature  
Mean Temperature 19 °F 18 °F  
Max Temperature 25 °F 26 °F 47 °F (1990)
Min Temperature 13 °F 9 °F -19 °F (1923)
Degree Days  
Heating Degree Days 46 47  
Month to date heating degree days 790  
Since 1 July heating degree days 3947  
Moisture  
Dew Point 19 °F    
Average Humidity 90    
Maximum Humidity 96    
Minimum Humidity 80    
Precipitation  
Precipitation 0.00 in 0.05 in 0.52 in (1988)
Month to date precipitation 0.90  
Year to date precipitation 0.90  
Snow  
Snow 0.00 in 0.60 in 7.40 in (2012)
Month to date snowfall 9.3  
Since 1 July snowfall 34.3  
Snow Depth -    
Sea Level Pressure  
Sea Level Pressure 29.66 in    
Wind  
Wind Speed 4 mph (WSW)    
Max Wind Speed 10 mph    
Max Gust Speed 18 mph    
Visibility 5 miles    
Events Fog , Snow    
T = Trace of Precipitation, MM = Missing Value Source: NWS Daily Summary

Daily Weather History Graph

Daily Weather History Graph

Search for Another Location

Airport:

Trip Planner

Search our weather history database for the weather conditions in past years. The results will help you decide how hot, cold, wet, or windy it might be!

Date:

Astronomy

Jan. 17, 2014 Rise Set
Actual Time 8:11 AM EST 5:27 PM EST
Civil Twilight 7:38 AM EST 5:59 PM EST
Nautical Twilight 7:02 AM EST 6:35 PM EST
Astronomical Twilight 6:28 AM EST 7:10 PM EST
Moon 7:19 PM EST (1/17) 8:33 AM EST (1/17)
Length of Visible Light 10h 20m
Length of Day
9h 15m
Full, 98% of the Moon is Illuminated
Jan 17
Full
Jan 24
Last Quarter
Jan 30
New
Feb 6
First Quarter
Feb 14
Full

Hourly Weather History & Observations

Time (EST) Temp. Windchill Dew Point Humidity Pressure Visibility Wind Dir Wind Speed Gust Speed Precip Events Conditions
12:15 AM 23.0 °F 17.0 °F 21.9 °F 96% 29.54 in 1.8 mi East 4.6 mph - N/A Snow Light Snow
12:35 AM 21.9 °F 17.2 °F 21.0 °F 96% 29.53 in 2.0 mi East 3.5 mph - N/A Snow Light Snow
12:55 AM 21.0 °F 16.2 °F 20.1 °F 96% 29.53 in 3.0 mi East 3.5 mph - N/A Snow Light Snow
1:15 AM 20.3 °F 15.4 °F 19.4 °F 96% 29.53 in 4.0 mi East 3.5 mph - N/A Snow Light Snow
1:35 AM 19.4 °F - 18.5 °F 96% 29.53 in 4.0 mi Calm Calm - N/A Snow Light Snow
1:55 AM 17.1 °F - 15.8 °F 95% 29.53 in 2.5 mi Calm Calm - N/A Snow Light Snow
2:15 AM 13.6 °F - 12.0 °F 93% 29.53 in 0.2 mi Calm Calm - N/A Fog Light Freezing Fog
2:34 AM 15.6 °F - 14.2 °F 94% 29.53 in 0.2 mi Calm Calm - N/A Fog Light Freezing Fog
2:55 AM 16.0 °F - 14.7 °F 95% 29.54 in 1.0 mi Calm Calm - N/A   Overcast
3:15 AM 18.1 °F - 17.1 °F 96% 29.54 in 5.0 mi Calm Calm - N/A   Overcast
3:35 AM 18.7 °F - 17.8 °F 96% 29.54 in 7.0 mi Calm Calm - N/A   Overcast
3:55 AM 19.0 °F - 18.1 °F 96% 29.54 in 7.0 mi Calm Calm - N/A   Overcast
4:14 AM 19.2 °F - 18.3 °F 96% 29.54 in 7.0 mi Calm Calm - N/A   Overcast
4:35 AM 19.6 °F - 18.7 °F 96% 29.54 in 7.0 mi Calm Calm - N/A   Overcast
4:55 AM 20.3 °F - 19.4 °F 96% 29.55 in 5.0 mi Calm Calm - N/A Snow Light Snow
5:15 AM 18.7 °F - 17.4 °F 95% 29.55 in 5.0 mi Calm Calm - N/A Snow Light Snow
5:35 AM 19.4 °F - 17.2 °F 91% 29.56 in 4.0 mi Calm Calm - N/A Snow Light Snow
5:55 AM 19.4 °F - 18.0 °F 94% 29.56 in 1.8 mi Calm Calm - N/A Snow Light Snow
6:15 AM 19.8 °F - 18.0 °F 93% 29.56 in 3.0 mi Calm Calm - N/A Snow Light Snow
6:35 AM 18.9 °F - 17.2 °F 93% 29.57 in 7.0 mi Calm Calm - N/A   Overcast
6:55 AM 19.6 °F - 17.8 °F 93% 29.58 in 5.0 mi Calm Calm - N/A   Overcast
7:15 AM 19.2 °F - 17.6 °F 93% 29.59 in 5.0 mi Calm Calm - N/A   Overcast
7:35 AM 19.6 °F - 18.5 °F 96% 29.59 in 7.0 mi Calm Calm - N/A   Overcast
7:55 AM 21.7 °F - 19.4 °F 91% 29.60 in 7.0 mi Calm Calm - N/A   Overcast
8:15 AM 21.6 °F - 19.4 °F 91% 29.60 in 7.0 mi Calm Calm - N/A   Overcast
8:34 AM 21.7 °F - 19.6 °F 91% 29.61 in 5.0 mi Calm Calm - N/A   Overcast
8:55 AM 21.6 °F - 19.9 °F 93% 29.61 in 5.0 mi Calm Calm - N/A   Overcast
9:15 AM 21.7 °F 15.5 °F 20.5 °F 95% 29.62 in 4.0 mi SW 4.6 mph - N/A   Overcast
9:35 AM 23.0 °F 18.4 °F 21.7 °F 95% 29.63 in 4.0 mi WSW 3.5 mph - N/A   Overcast
9:55 AM 24.1 °F 19.7 °F 22.8 °F 95% 29.64 in 3.0 mi SW 3.5 mph - N/A Snow Light Snow
10:15 AM 25.3 °F 18.5 °F 23.4 °F 92% 29.65 in 5.0 mi SW 5.8 mph - N/A Snow Light Snow
10:35 AM 23.5 °F 13.7 °F 20.7 °F 89% 29.66 in 7.0 mi SW 9.2 mph 17.3 mph N/A   Overcast
10:55 AM 23.4 °F 13.5 °F 20.3 °F 88% 29.67 in 7.0 mi WSW 9.2 mph - N/A Snow Light Snow
11:15 AM 23.0 °F 13.9 °F 19.8 °F 87% 29.67 in 10.0 mi WSW 8.1 mph 17.3 mph N/A Snow Light Snow
11:35 AM 23.0 °F 13.9 °F 19.4 °F 86% 29.67 in 10.0 mi WSW 8.1 mph - N/A   Overcast
11:55 AM 23.0 °F 12.4 °F 18.9 °F 84% 29.67 in 10.0 mi WSW 10.4 mph 18.4 mph N/A   Overcast
12:15 PM 23.7 °F 13.3 °F 19.0 °F 82% 29.67 in 7.0 mi WSW 10.4 mph - N/A   Overcast
12:35 PM 23.9 °F 14.2 °F 19.0 °F 82% 29.67 in 5.0 mi WSW 9.2 mph 17.3 mph N/A Snow Light Snow
12:55 PM 24.3 °F 16.3 °F 19.4 °F 82% 29.67 in 5.0 mi WSW 6.9 mph - N/A Snow Light Snow
1:15 PM 24.4 °F 14.9 °F 19.0 °F 80% 29.67 in 10.0 mi WSW 9.2 mph - N/A   Overcast
1:35 PM 24.8 °F 16.9 °F 19.4 °F 80% 29.68 in 10.0 mi WSW 6.9 mph - N/A   Overcast
1:55 PM 25.3 °F 16.7 °F 19.9 °F 80% 29.68 in 7.0 mi WSW 8.1 mph - N/A   Overcast
2:15 PM 25.5 °F 16.2 °F 20.3 °F 81% 29.68 in 5.0 mi WSW 9.2 mph - N/A Snow Light Snow
2:35 PM 24.4 °F 17.5 °F 19.2 °F 81% 29.69 in 5.0 mi WSW 5.8 mph - N/A Snow Light Snow
2:55 PM 24.3 °F 17.3 °F 19.4 °F 82% 29.70 in 3.0 mi WSW 5.8 mph - N/A Snow Light Snow
3:15 PM 23.5 °F 16.4 °F 20.1 °F 87% 29.70 in 1.8 mi WSW 5.8 mph - N/A Snow Light Snow
3:35 PM 23.0 °F 13.9 °F 19.8 °F 87% 29.71 in 1.8 mi WSW 8.1 mph - N/A Snow Light Snow
3:55 PM 23.0 °F 17.0 °F 20.3 °F 89% 29.72 in 1.2 mi WSW 4.6 mph - N/A Snow Light Snow
4:15 PM 23.0 °F 14.7 °F 20.1 °F 89% 29.72 in 2.0 mi WSW 6.9 mph - N/A Snow Light Snow
4:35 PM 23.0 °F 13.9 °F 20.1 °F 89% 29.73 in 2.0 mi WSW 8.1 mph - N/A Snow Light Snow
4:55 PM 23.0 °F 14.7 °F 20.3 °F 89% 29.74 in 1.2 mi WSW 6.9 mph - N/A Snow Light Snow
5:15 PM 23.0 °F 18.4 °F 20.5 °F 90% 29.75 in 1.2 mi WSW 3.5 mph - N/A Snow Light Snow
5:35 PM 21.9 °F 14.5 °F 19.8 °F 91% 29.75 in 1.2 mi WSW 5.8 mph - N/A Snow Light Snow
5:55 PM 21.0 °F 13.4 °F 18.5 °F 90% 29.75 in 3.0 mi SW 5.8 mph - N/A Snow Light Snow
6:15 PM 21.0 °F 13.4 °F 18.0 °F 88% 29.76 in 3.0 mi WSW 5.8 mph - N/A Snow Light Snow
6:35 PM 20.8 °F 13.2 °F 18.0 °F 89% 29.76 in 4.0 mi WSW 5.8 mph - N/A Snow Light Snow
6:55 PM 20.5 °F 12.8 °F 18.1 °F 91% 29.77 in 5.0 mi WSW 5.8 mph - N/A Snow Light Snow
7:15 PM 20.3 °F 9.8 °F 17.8 °F 90% 29.77 in 10.0 mi WSW 9.2 mph - N/A   Overcast
7:35 PM 20.3 °F 11.5 °F 16.7 °F 86% 29.78 in 10.0 mi SW 6.9 mph - N/A Snow Light Snow
7:55 PM 20.3 °F 12.5 °F 16.7 °F 86% 29.79 in 10.0 mi WSW 5.8 mph - N/A Snow Light Snow
8:15 PM 20.3 °F 12.5 °F 17.1 °F 87% 29.79 in 5.0 mi WSW 5.8 mph - N/A Snow Light Snow
8:35 PM 19.8 °F 13.2 °F 16.9 °F 89% 29.79 in 2.5 mi WSW 4.6 mph - N/A Snow Light Snow
8:55 PM 19.8 °F 10.8 °F 17.2 °F 90% 29.79 in 3.0 mi WSW 6.9 mph - N/A Snow Light Snow
9:15 PM 19.4 °F 11.5 °F 17.2 °F 91% 29.79 in 4.0 mi WSW 5.8 mph - N/A Snow Light Snow
9:35 PM 19.4 °F 10.4 °F 17.2 °F 91% 29.79 in 5.0 mi WSW 6.9 mph - N/A Snow Light Snow
9:55 PM 19.4 °F 10.4 °F 17.2 °F 91% 29.79 in 5.0 mi WSW 6.9 mph - N/A Snow Light Snow
10:15 PM 19.4 °F 11.5 °F 17.1 °F 91% 29.79 in 4.0 mi SW 5.8 mph - N/A Snow Light Snow
10:35 PM 19.4 °F 11.5 °F 17.2 °F 91% 29.79 in 4.0 mi SW 5.8 mph - N/A Snow Light Snow
10:55 PM 19.2 °F 11.3 °F 17.2 °F 92% 29.79 in 4.0 mi WSW 5.8 mph - N/A Snow Light Snow
11:15 PM 18.7 °F 10.6 °F 16.7 °F 92% 29.79 in 5.0 mi WSW 5.8 mph - N/A Snow Light Snow
11:35 PM 19.2 °F 12.5 °F 17.2 °F 92% 29.78 in 4.0 mi WSW 4.6 mph - N/A Snow Light Snow
11:55 PM 19.2 °F 12.5 °F 17.4 °F 93% 29.78 in 5.0 mi WSW 4.6 mph - N/A Snow Light Snow